"Pseudo-MPEC" for CC9EWZ2

Created 2024 Nov 14 8:31:05 UT using Find_Orb

Click here for an explanation of pseudo-MPECs

 
 Astrometry: 
     CC9EWZ2*1C2024 11 13.44112508 38 26.862+32 46 51.92   ~BDBV       VNEOCPG96
     CC9EWZ2 1C2024 11 13.45142508 37 51.344+32 41 39.30   ~BDBVx19.85GVNEOCPG96
     CC9EWZ2 1C2024 11 13.45657408 37 33.704+32 39 03.46   ~BDBVx19.55GVNEOCPG96
     CC9EWZ2 KC2024 11 13.49330308 35 29.688+32 20 24.22   ~BDCV       VNEOCPI52
     CC9EWZ2 KC2024 11 13.49399308 35 27.377+32 20 02.58   ~BDCV 19.13GVNEOCPI52
     CC9EWZ2 KC2024 11 13.49469208 35 25.055+32 19 40.91   ~BDCV 19.12GVNEOCPI52
     CC9EWZ2 KC2024 11 13.49537908 35 22.758+32 19 19.85   ~BDCV 19.23GVNEOCPI52
     CC9EWZ2 KC2024 11 13.51773608 34 08.699+32 07 45.80   ~BDCl 18.82GVNEOCPI52
     CC9EWZ2 KC2024 11 13.51824608 34 07.072+32 07 29.39   ~BDCl 18.91GVNEOCPI52
     CC9EWZ2 KC2024 11 13.51876308 34 05.358+32 07 13.30   ~BDCl       VNEOCPI52
     CC9EWZ2 KC2024 11 13.51928008 34 03.677+32 06 57.20   ~BDCl 18.82GVNEOCPI52
     CC9EWZ2 KB2024 11 13.60017808 32 57.193+31 12 41.99   ~BDFH 19.2 GXNEOCPQ06
     CC9EWZ2 KB2024 11 13.61195308 32 28.768+31 08 00.63   ~BDFHx19.3 GXNEOCPQ06
     CC9EWZ2 0B2024 11 14.10718908 16 16.703+28 18 07.15   ~BE62 19.4 VZNEOCPM49
     CC9EWZ2 0B2024 11 14.11383708 16 02.524+28 15 52.68   ~BE62 19.3 VZNEOCPM49
     CC9EWZ2 0B2024 11 14.12048608 15 48.348+28 13 37.86   ~BE62 20.0 VZNEOCPM49

Station data:
(G96) Mt. Lemmon Survey  (N32.442729 W110.788720)  US/Arizona.  Observer E.
   J. Christensen. 1.5-m reflector + 10K CCD.
(I52) Steward Observatory, Mt. Lemmon Station  (N32.442570 W110.788920)
   US/Arizona.  Observers T. A. Pruyne, B. M. Africano, E. J. Christensen, G.
   A. Farneth, D. C. Fuls, A. R. Gibbs, A. D. Grauer, H. Gröller, J. A.
   Johnson, R. A. Kowalski, S. M. Larson, G. J. Leonard, D. Rankin, R. L.
   Seaman, F. C. Shelly, K. W. Wierzchoś. 1.0-m prime focus + CCD.
(M49) IAS Remote Observatory, Hakos  (S23.236549 E16.361720)  Namibia.
   Observers D. Husar, M. Junius. Measurer D. Husar. 0.25-m f/4.6 reflector +
   CCD.
(Q06) Tarui Observatory, Tarui  (N35.394791 E136.495470)  Japan.

Orbital elements:  CC9EWZ2
   Perigee 2024 Nov 11.53984 +/- 0.00125 TT = 12:57:21 (JD 2460626.03984)
Epoch 2024 Nov 14.0 TT = JDT 2460628.5                           AutoNEOCP
q292653.020 +/- 202                 (J2000 equator)
H   28.55 G 0.15                    Peri.   70.63691 +/- 0.014
                                    Node   280.69339 +/- 0.0012
e   9.2569141 +/- 0.0137            Incl.  126.63666 +/- 0.0011
13 of 16 observations 2024 Nov. 13-14 (16.3 hr); mean residual 0".30
Residuals in arcseconds: 
241113 G96  .50-  .31-    241113 I52  .39+  .10+    241113 Q06( 1.7-  2.3-)   
241113 G96( 3.3-  2.8-)   241113 I52  .12-  .68+    241114 M49  .06+  .14+    
241113 G96( 3.8-  3.0-)   241113 I52  .44+  .21+    241114 M49  .10+  .10-    
241113 I52  .21+  .37+    241113 I52  .17+  .28+    241114 M49  .16-  .03+    
241113 I52  .19+  .03+    241113 I52  .31+  .34+    
241113 I52  .39+  .06-    241113 Q06  .33-  .54-    

Ephemerides (geocentric):
Date (UTC) HH   RA             Dec           delta  r     elong  mag " sig PA
---- --------  ------------   ------------  ------ ------ -----  --- --------
2024 11 14 09  08 09 57.755   +26 32 14.06  905976 0.9917 113.1 19.8 1.68  32
2024 11 14 10  08 09 09.286   +26 20 05.70  917738 0.9917 113.3 19.8 1.90  33
2024 11 14 11  08 08 22.206   +26 08 14.80  929513 0.9917 113.4 19.8 2.12  33
2024 11 14 12  08 07 36.456   +25 56 40.77  941301 0.9918 113.6 19.9 2.34  33
2024 11 14 13  08 06 51.982   +25 45 23.05  953102 0.9918 113.8 19.9 2.56  34
2024 11 14 14  08 06 08.730   +25 34 21.11  964914 0.9919 114.0 19.9 2.79  34
2024 11 14 15  08 05 26.650   +25 23 34.41  976738 0.9919 114.1 19.9 3.03  34
2024 11 14 16  08 04 45.697   +25 13 02.47  988573 0.9919 114.3 19.9 3.26  34
2024 11 14 17  08 04 05.824   +25 02 44.81  .00669 0.9920 114.5 20.0 3.50  35
2024 11 14 18  08 03 26.991   +24 52 40.97  .00677 0.9920 114.6 20.0 3.73  35
2024 11 14 19  08 02 49.156   +24 42 50.51  .00685 0.9921 114.8 20.0 3.97  35
2024 11 14 20  08 02 12.283   +24 33 13.00  .00693 0.9921 114.9 20.0 4.22  35
2024 11 14 21  08 01 36.334   +24 23 48.05  .00700 0.9921 115.1 20.0 4.46  35
2024 11 14 22  08 01 01.274   +24 14 35.25  .00708 0.9922 115.2 20.1 4.70  35
2024 11 14 23  08 00 27.072   +24 05 34.25  .00716 0.9922 115.4 20.1 4.94  35
2024 11 15 00  07 59 53.697   +23 56 44.67  .00724 0.9923 115.5 20.1 5.18  35
2024 11 15 01  07 59 21.117   +23 48 06.18  .00732 0.9923 115.6 20.1 5.43  36
2024 11 15 02  07 58 49.306   +23 39 38.43  .00740 0.9924 115.8 20.1 5.67  36
2024 11 15 03  07 58 18.235   +23 31 21.11  .00748 0.9924 115.9 20.2 5.91  36
2024 11 15 04  07 57 47.880   +23 23 13.91  .00756 0.9924 116.1 20.2 6.15  36
2024 11 15 05  07 57 18.215   +23 15 16.53  .00764 0.9925 116.2 20.2 6.39  36
2024 11 15 06  07 56 49.217   +23 07 28.69  .00772 0.9925 116.3 20.2 6.63  36
2024 11 15 07  07 56 20.864   +22 59 50.12  .00780 0.9926 116.4 20.2 6.87  36
2024 11 15 08  07 55 53.134   +22 52 20.54  .00788 0.9926 116.6 20.3 7.11  36
2024 11 15 09  07 55 26.006   +22 44 59.70  .00796 0.9926 116.7 20.3 7.35  36
2024 11 15 10  07 54 59.461   +22 37 47.36  .00804 0.9927 116.8 20.3 7.58  36
2024 11 15 11  07 54 33.481   +22 30 43.29  .00812 0.9927 116.9 20.3 7.82  36
2024 11 15 12  07 54 08.046   +22 23 47.24  .00820 0.9928 117.0 20.3 8.05  36
2024 11 15 13  07 53 43.140   +22 16 59.00  .00828 0.9928 117.2 20.3 8.28  36
2024 11 15 14  07 53 18.746   +22 10 18.36  .00836 0.9929 117.3 20.4 8.51  36
2024 11 15 15  07 52 54.848   +22 03 45.11  .00844 0.9929 117.4 20.4 8.74  36
2024 11 15 16  07 52 31.431   +21 57 19.06  .00852 0.9929 117.5 20.4 8.97  36
2024 11 15 17  07 52 08.481   +21 51 00.01  .00860 0.9930 117.6 20.4 9.20  36
2024 11 15 18  07 51 45.982   +21 44 47.78  .00868 0.9930 117.7 20.4 9.42  36
2024 11 15 19  07 51 23.923   +21 38 42.19  .00876 0.9931 117.8 20.5 9.64  36
2024 11 15 20  07 51 02.289   +21 32 43.06  .00884 0.9931 117.9 20.5 9.87  36
2024 11 15 21  07 50 41.068   +21 26 50.24  .00892 0.9932 118.0 20.5 10.1  36
2024 11 15 22  07 50 20.249   +21 21 03.56  .00900 0.9932 118.1 20.5 10.3  36
2024 11 15 23  07 49 59.819   +21 15 22.86  .00908 0.9932 118.2 20.5 10.5  36
2024 11 16 00  07 49 39.768   +21 09 47.99  .00916 0.9933 118.3 20.5 10.7  36
2024 11 16 01  07 49 20.084   +21 04 18.81  .00924 0.9933 118.4 20.5 10.9  36
2024 11 16 02  07 49 00.758   +20 58 55.18  .00933 0.9934 118.5 20.6 11.2  36
2024 11 16 03  07 48 41.780   +20 53 36.95  .00941 0.9934 118.6 20.6 11.4  36
2024 11 16 04  07 48 23.140   +20 48 24.01  .00949 0.9935 118.7 20.6 11.6  36
2024 11 16 05  07 48 04.828   +20 43 16.21  .00957 0.9935 118.8 20.6 11.8  36
2024 11 16 06  07 47 46.836   +20 38 13.44  .00965 0.9936 118.9 20.6 12.0  36
2024 11 16 07  07 47 29.155   +20 33 15.58  .00973 0.9936 119.0 20.6 12.2  36
2024 11 16 08  07 47 11.778   +20 28 22.51  .00981 0.9936 119.1 20.7 12.4  36